Time,TemperatureF,DewpointF,PressureIn,WindDirection,WindDirectionDegrees,WindSpeedMPH,WindSpeedGustMPH,Humidity,HourlyPrecipIn,Conditions,Clouds,dailyrainin,SoftwareType,DateUTC
2013-12-12 00:01:00,27.0,13.8,-100.00,East,90,0.0,3.6,54,0.00,,,0.00,WSDL version 423,2013-12-12 05:01:00,
2013-12-12 00:04:00,26.9,14.0,-100.00,ESE,104,0.6,3.1,54,0.00,,,0.00,WSDL version 423,2013-12-12 05:04:00,
2013-12-12 00:07:00,26.8,13.9,-100.00,East,90,0.0,3.1,54,0.00,,,0.00,WSDL version 423,2013-12-12 05:07:00,
2013-12-12 00:10:00,26.6,13.8,-100.00,ESE,116,1.5,3.4,54,0.00,,,0.00,WSDL version 423,2013-12-12 05:10:00,
2013-12-12 00:16:00,26.6,13.8,-100.00,SE,135,0.9,3.4,54,0.00,,,0.00,WSDL version 423,2013-12-12 05:16:00,
2013-12-12 00:19:00,26.6,13.9,-100.00,ESE,118,1.3,3.1,55,-99.99,,,-99.99,WSDL version 423,2013-12-12 05:19:00,
2013-12-12 00:25:00,26.6,13.8,-100.00,SE,135,1.6,3.6,54,-99.99,,,-99.99,WSDL version 423,2013-12-12 05:25:00,
2013-12-12 00:31:00,26.6,13.8,-100.00,ESE,116,2.7,4.9,54,0.00,,,0.00,WSDL version 423,2013-12-12 05:31:00,
2013-12-12 00:34:00,26.6,13.8,-100.00,ESE,105,0.9,4.9,54,-99.99,,,-99.99,WSDL version 423,2013-12-12 05:34:00,
2013-12-12 00:40:00,26.4,13.6,-100.00,SE,127,0.9,3.8,54,0.00,,,0.00,WSDL version 423,2013-12-12 05:40:00,
2013-12-12 00:46:00,26.4,13.6,-100.00,SE,127,0.5,4.7,54,-99.99,,,-99.99,WSDL version 423,2013-12-12 05:46:00,
2013-12-12 00:52:00,26.4,13.6,-100.00,ESE,113,1.6,4.7,54,-99.99,,,-99.99,WSDL version 423,2013-12-12 05:52:00,
2013-12-12 00:58:00,26.2,13.4,-100.00,East,80,0.8,3.6,54,-99.99,,,-99.99,WSDL version 423,2013-12-12 05:58:00,
2013-12-12 01:04:00,26.1,13.3,-100.00,ESE,110,1.3,3.1,54,0.00,,,0.00,WSDL version 423,2013-12-12 06:04:00,
2013-12-12 01:10:00,26.2,13.4,-100.00,ESE,115,2.0,7.6,54,0.00,,,0.00,WSDL version 423,2013-12-12 06:10:00,
2013-12-12 01:16:00,26.1,13.3,-100.00,East,98,1.2,3.8,54,-99.99,,,-99.99,WSDL version 423,2013-12-12 06:16:00,
2013-12-12 01:22:00,25.9,13.2,-100.00,ESE,109,2.4,4.0,54,-99.99,,,-99.99,WSDL version 423,2013-12-12 06:22:00,
2013-12-12 01:28:00,26.1,13.3,-100.00,SE,132,1.7,4.3,54,-99.99,,,-99.99,WSDL version 423,2013-12-12 06:28:00,
2013-12-12 01:34:00,25.9,13.1,-100.00,SE,138,0.7,3.4,54,0.00,,,0.00,WSDL version 423,2013-12-12 06:34:00,
2013-12-12 01:40:00,25.8,13.1,-100.00,East,96,2.1,4.9,54,-99.99,,,-99.99,WSDL version 423,2013-12-12 06:40:00,
2013-12-12 01:46:00,25.7,12.9,-100.00,ESE,113,2.3,5.8,54,-99.99,,,-99.99,WSDL version 423,2013-12-12 06:46:00,
2013-12-12 01:52:00,25.8,13.0,-100.00,East,96,1.8,5.8,54,0.00,,,0.00,WSDL version 423,2013-12-12 06:52:00,
2013-12-12 01:58:00,25.7,13.1,-100.00,SE,127,1.6,4.7,55,0.00,,,0.00,WSDL version 423,2013-12-12 06:58:00,
2013-12-12 02:04:00,25.7,12.9,-100.00,ESE,113,1.5,5.4,54,-99.99,,,-99.99,WSDL version 423,2013-12-12 07:04:00,
2013-12-12 02:10:00,25.5,12.8,-100.00,SE,127,1.3,3.8,54,0.00,,,0.00,WSDL version 423,2013-12-12 07:10:00,
2013-12-12 02:16:00,25.6,12.9,-100.00,ESE,122,2.4,3.6,54,-99.99,,,-99.99,WSDL version 423,2013-12-12 07:16:00,
2013-12-12 02:22:00,25.9,13.4,-100.00,ESE,115,2.1,3.6,54,0.00,,,0.00,WSDL version 423,2013-12-12 07:22:00,
2013-12-12 02:28:00,26.1,13.3,-100.00,SE,138,2.0,5.6,54,-99.99,,,-99.99,WSDL version 423,2013-12-12 07:28:00,
2013-12-12 02:34:00,26.3,13.5,-100.00,ESE,116,2.8,4.7,54,-99.99,,,-99.99,WSDL version 423,2013-12-12 07:34:00,
2013-12-12 02:40:00,26.5,13.5,-100.00,ESE,115,4.1,8.5,53,0.00,,,0.00,WSDL version 423,2013-12-12 07:40:00,
2013-12-12 02:46:00,26.4,13.6,-100.00,East,88,2.9,8.5,54,0.00,,,0.00,WSDL version 423,2013-12-12 07:46:00,
2013-12-12 02:52:00,26.2,13.4,-100.00,SE,138,2.9,5.4,54,0.00,,,0.00,WSDL version 423,2013-12-12 07:52:00,
2013-12-12 02:58:00,26.1,13.3,-100.00,ESE,103,2.7,6.0,54,-99.99,,,-99.99,WSDL version 423,2013-12-12 07:58:00,
2013-12-12 03:04:00,26.0,13.2,-100.00,South,173,0.3,6.0,54,0.00,,,0.00,WSDL version 423,2013-12-12 08:04:00,
2013-12-12 03:10:00,25.9,13.1,-100.00,SE,138,2.8,5.8,54,0.00,,,0.00,WSDL version 423,2013-12-12 08:10:00,
2013-12-12 03:16:00,25.9,12.9,-100.00,SE,127,3.5,5.8,54,-99.99,,,-99.99,WSDL version 423,2013-12-12 08:16:00,
2013-12-12 03:22:00,25.8,13.0,-100.00,SE,135,1.2,5.6,54,-99.99,,,-99.99,WSDL version 423,2013-12-12 08:22:00,
2013-12-12 03:28:00,25.9,12.9,-100.00,ESE,121,3.4,5.8,53,0.00,,,0.00,WSDL version 423,2013-12-12 08:28:00,
2013-12-12 03:34:00,25.9,12.9,-100.00,ESE,104,3.4,5.8,53,0.00,,,0.00,WSDL version 423,2013-12-12 08:34:00,
2013-12-12 03:40:00,25.9,12.7,-100.00,East,90,2.6,5.8,53,-99.99,,,-99.99,WSDL version 423,2013-12-12 08:40:00,
2013-12-12 03:46:00,25.7,12.6,-100.00,SE,135,2.5,6.0,53,0.00,,,0.00,WSDL version 423,2013-12-12 08:46:00,
2013-12-12 03:52:00,25.5,12.4,-100.00,SE,133,3.8,9.2,53,-99.99,,,-99.99,WSDL version 423,2013-12-12 08:52:00,
2013-12-12 03:58:00,25.4,12.3,-100.00,SSW,194,2.9,9.2,53,0.00,,,0.00,WSDL version 423,2013-12-12 08:58:00,
2013-12-12 04:04:00,25.2,12.2,-100.00,SE,130,3.1,8.1,53,0.00,,,0.00,WSDL version 423,2013-12-12 09:04:00,
2013-12-12 04:10:00,25.0,12.2,-100.00,ESE,123,3.4,6.0,54,-99.99,,,-99.99,WSDL version 423,2013-12-12 09:10:00,
2013-12-12 04:16:00,24.8,11.8,-100.00,ENE,70,4.3,8.7,53,-99.99,,,-99.99,WSDL version 423,2013-12-12 09:16:00,
2013-12-12 04:22:00,24.6,11.2,-100.00,SSE,155,3.4,8.1,52,-99.99,,,-99.99,WSDL version 423,2013-12-12 09:22:00,
2013-12-12 04:28:00,24.5,11.0,-100.00,SE,140,4.1,8.5,52,-99.99,,,-99.99,WSDL version 423,2013-12-12 09:28:00,
2013-12-12 04:34:00,24.4,10.6,-100.00,ESE,113,4.6,8.5,51,-99.99,,,-99.99,WSDL version 423,2013-12-12 09:34:00,
2013-12-12 04:40:00,24.4,10.3,-100.00,SE,124,3.4,6.5,50,-99.99,,,-99.99,WSDL version 423,2013-12-12 09:40:00,
2013-12-12 04:46:00,24.3,9.9,-100.00,SE,138,2.7,7.8,50,-99.99,,,-99.99,WSDL version 423,2013-12-12 09:46:00,
2013-12-12 04:52:00,24.0,9.9,-100.00,SE,140,2.2,8.7,50,-99.99,,,-99.99,WSDL version 423,2013-12-12 09:52:00,
2013-12-12 04:58:00,23.8,9.5,-100.00,SE,125,3.5,7.8,49,-99.99,,,-99.99,WSDL version 423,2013-12-12 09:58:00,
2013-12-12 05:04:00,23.6,9.4,-100.00,SSE,160,2.0,6.0,50,-99.99,,,-99.99,WSDL version 423,2013-12-12 10:04:00,
2013-12-12 05:10:00,23.5,9.7,-100.00,ESE,115,1.3,4.9,51,0.00,,,0.00,WSDL version 423,2013-12-12 10:10:00,
2013-12-12 05:16:00,23.4,9.6,-100.00,ESE,113,2.4,6.0,51,-99.99,,,-99.99,WSDL version 423,2013-12-12 10:16:00,
2013-12-12 05:22:00,23.3,9.3,-100.00,SE,129,1.2,5.4,51,-99.99,,,-99.99,WSDL version 423,2013-12-12 10:22:00,
2013-12-12 05:28:00,23.0,9.6,-100.00,ESE,104,2.0,5.6,52,-99.99,,,-99.99,WSDL version 423,2013-12-12 10:28:00,
2013-12-12 05:34:00,22.8,9.4,-100.00,ESE,123,1.1,5.6,52,-99.99,,,-99.99,WSDL version 423,2013-12-12 10:34:00,
2013-12-12 05:40:00,22.7,9.3,-100.00,SSE,154,1.5,3.8,52,-99.99,,,-99.99,WSDL version 423,2013-12-12 10:40:00,
2013-12-12 05:46:00,22.6,9.2,-100.00,East,98,1.6,4.0,52,-99.99,,,-99.99,WSDL version 423,2013-12-12 10:46:00,
2013-12-12 05:52:00,22.6,8.8,-100.00,ESE,118,2.7,4.0,51,-99.99,,,-99.99,WSDL version 423,2013-12-12 10:52:00,
2013-12-12 05:58:00,22.7,8.2,-100.00,ESE,103,1.9,4.3,49,0.00,,,0.00,WSDL version 423,2013-12-12 10:58:00,
2013-12-12 06:04:00,22.6,7.8,-100.00,ESE,122,1.7,5.8,49,-99.99,,,-99.99,WSDL version 423,2013-12-12 11:04:00,
2013-12-12 06:10:00,22.6,7.1,-100.00,SE,143,2.7,7.8,46,-99.99,,,-99.99,WSDL version 423,2013-12-12 11:10:00,
2013-12-12 06:16:00,22.7,6.7,-100.00,SE,133,4.2,7.8,45,-99.99,,,-99.99,WSDL version 423,2013-12-12 11:16:00,
2013-12-12 06:22:00,22.8,6.3,-100.00,SSE,161,4.3,8.7,44,0.00,,,0.00,WSDL version 423,2013-12-12 11:22:00,
2013-12-12 06:28:00,22.8,5.8,-100.00,SE,127,4.0,8.7,43,0.00,,,0.00,WSDL version 423,2013-12-12 11:28:00,
2013-12-12 06:34:00,22.8,6.1,-100.00,SE,135,3.8,8.7,43,-99.99,,,-99.99,WSDL version 423,2013-12-12 11:34:00,
2013-12-12 06:40:00,22.8,5.7,-100.00,ESE,110,3.4,8.7,43,-99.99,,,-99.99,WSDL version 423,2013-12-12 11:40:00,
2013-12-12 06:46:00,22.7,5.9,-100.00,ESE,118,3.4,8.5,44,-99.99,,,-99.99,WSDL version 423,2013-12-12 11:46:00,
2013-12-12 06:52:00,22.6,5.9,-100.00,SSE,160,3.7,8.7,43,-99.99,,,-99.99,WSDL version 423,2013-12-12 11:52:00,
2013-12-12 06:58:00,22.6,5.9,-100.00,South,186,2.7,8.7,44,0.00,,,0.00,WSDL version 423,2013-12-12 11:58:00,
2013-12-12 07:04:00,22.5,5.8,-100.00,SE,129,3.7,6.5,44,0.00,,,0.00,WSDL version 423,2013-12-12 12:04:00,
2013-12-12 07:10:00,22.3,5.8,-100.00,SSE,149,2.8,7.4,45,-99.99,,,-99.99,WSDL version 423,2013-12-12 12:10:00,
2013-12-12 07:16:00,22.3,5.7,-100.00,SE,138,4.1,10.5,44,0.00,,,0.00,WSDL version 423,2013-12-12 12:16:00,
2013-12-12 07:22:00,22.3,5.7,-100.00,East,93,3.0,10.5,44,-99.99,,,-99.99,WSDL version 423,2013-12-12 12:22:00,
2013-12-12 07:28:00,22.4,5.5,-100.00,ESE,110,4.5,7.8,43,-99.99,,,-99.99,WSDL version 423,2013-12-12 12:28:00,
2013-12-12 07:34:00,22.5,5.7,-100.00,SSE,158,3.0,7.8,44,-99.99,,,-99.99,WSDL version 423,2013-12-12 12:34:00,
2013-12-12 07:40:00,22.5,5.8,-100.00,SE,143,3.7,6.3,44,-99.99,,,-99.99,WSDL version 423,2013-12-12 12:40:00,
2013-12-12 07:46:00,22.5,5.9,-100.00,SE,143,2.3,6.0,44,0.00,,,0.00,WSDL version 423,2013-12-12 12:46:00,
2013-12-12 07:52:00,22.6,5.9,-100.00,ESE,121,3.9,7.2,43,0.00,,,0.00,WSDL version 423,2013-12-12 12:52:00,
2013-12-12 07:58:00,22.8,6.0,-100.00,ESE,103,3.6,7.2,44,-99.99,,,-99.99,WSDL version 423,2013-12-12 12:58:00,
2013-12-12 08:04:00,22.8,6.1,-100.00,ESE,118,3.0,6.3,44,0.00,,,0.00,WSDL version 423,2013-12-12 13:04:00,
2013-12-12 08:10:00,23.1,6.0,-100.00,ESE,106,2.3,4.9,43,0.00,,,0.00,WSDL version 423,2013-12-12 13:10:00,
2013-12-12 08:16:00,23.2,5.9,-100.00,ESE,105,4.4,8.5,43,-99.99,,,-99.99,WSDL version 423,2013-12-12 13:16:00,
2013-12-12 08:22:00,23.2,6.0,-100.00,SE,130,2.9,8.5,43,-99.99,,,-99.99,WSDL version 423,2013-12-12 13:22:00,
2013-12-12 08:28:00,23.2,5.6,-100.00,ESE,122,3.8,7.8,42,0.00,,,0.00,WSDL version 423,2013-12-12 13:28:00,
2013-12-12 08:34:00,23.2,5.6,-100.00,SE,141,4.3,7.4,42,-99.99,,,-99.99,WSDL version 423,2013-12-12 13:34:00,
2013-12-12 08:40:00,23.2,5.5,-100.00,SE,138,4.9,8.7,42,-99.99,,,-99.99,WSDL version 423,2013-12-12 13:40:00,
2013-12-12 08:46:00,23.2,4.8,-100.00,SSE,158,4.8,10.3,40,-99.99,,,-99.99,WSDL version 423,2013-12-12 13:46:00,
2013-12-12 08:52:00,23.0,5.0,-100.00,SE,124,3.4,10.3,42,0.00,,,0.00,WSDL version 423,2013-12-12 13:52:00,
2013-12-12 08:58:00,23.2,4.8,-100.00,ESE,115,3.2,10.1,41,-99.99,,,-99.99,WSDL version 423,2013-12-12 13:58:00,
2013-12-12 09:04:00,23.4,5.7,-100.00,South,170,3.6,7.4,42,-99.99,,,-99.99,WSDL version 423,2013-12-12 14:04:00,
2013-12-12 09:10:00,23.4,5.1,-100.00,SSE,158,3.2,7.4,41,0.00,,,0.00,WSDL version 423,2013-12-12 14:10:00,
2013-12-12 09:16:00,23.5,5.9,-100.00,SE,141,3.7,6.5,42,-99.99,,,-99.99,WSDL version 423,2013-12-12 14:16:00,
2013-12-12 09:22:00,23.7,5.5,-100.00,ESE,110,4.7,6.5,40,-99.99,,,-99.99,WSDL version 423,2013-12-12 14:22:00,
2013-12-12 09:28:00,23.5,5.1,-100.00,SE,141,3.6,8.1,40,0.00,,,0.00,WSDL version 423,2013-12-12 14:28:00,
2013-12-12 09:34:00,23.5,5.0,-100.00,ESE,115,3.4,8.1,41,0.00,,,0.00,WSDL version 423,2013-12-12 14:34:00,
2013-12-12 09:40:00,23.6,5.4,-100.00,East,95,2.4,6.5,42,0.00,,,0.00,WSDL version 423,2013-12-12 14:40:00,
2013-12-12 09:46:00,23.8,6.0,-100.00,SE,124,3.6,7.6,41,0.00,,,0.00,WSDL version 423,2013-12-12 14:46:00,
2013-12-12 09:52:00,23.9,5.3,-100.00,SE,135,3.6,7.6,40,-99.99,,,-99.99,WSDL version 423,2013-12-12 14:52:00,
2013-12-12 09:58:00,24.2,5.8,-100.00,ESE,123,4.1,6.5,40,-99.99,,,-99.99,WSDL version 423,2013-12-12 14:58:00,
2013-12-12 10:04:00,24.4,5.9,-100.00,SE,135,3.2,6.3,40,0.00,,,0.00,WSDL version 423,2013-12-12 15:04:00,
2013-12-12 10:10:00,24.4,5.3,-100.00,ESE,113,4.3,9.8,39,0.00,,,0.00,WSDL version 423,2013-12-12 15:10:00,
2013-12-12 10:16:00,24.4,4.8,-100.00,ESE,119,3.9,12.3,38,-99.99,,,-99.99,WSDL version 423,2013-12-12 15:16:00,
2013-12-12 10:22:00,24.6,5.2,-100.00,ESE,123,5.4,12.3,38,-99.99,,,-99.99,WSDL version 423,2013-12-12 15:22:00,
2013-12-12 10:28:00,24.7,5.1,-100.00,ESE,123,5.4,8.7,38,-99.99,,,-99.99,WSDL version 423,2013-12-12 15:28:00,
2013-12-12 10:34:00,24.9,5.0,-100.00,SE,124,4.3,12.5,37,0.00,,,0.00,WSDL version 423,2013-12-12 15:34:00,
2013-12-12 10:40:00,25.0,4.6,-100.00,SSE,149,4.5,10.5,37,-99.99,,,-99.99,WSDL version 423,2013-12-12 15:40:00,
2013-12-12 10:46:00,25.1,4.9,-100.00,SE,138,2.9,10.5,38,0.00,,,0.00,WSDL version 423,2013-12-12 15:46:00,
2013-12-12 10:52:00,25.3,5.4,-100.00,ESE,119,4.4,8.7,37,-99.99,,,-99.99,WSDL version 423,2013-12-12 15:52:00,
2013-12-12 10:58:00,25.4,5.1,-100.00,SE,146,3.4,9.6,38,-99.99,,,-99.99,WSDL version 423,2013-12-12 15:58:00,
2013-12-12 11:04:00,25.7,6.1,-100.00,ESE,108,3.3,8.5,39,0.00,,,0.00,WSDL version 423,2013-12-12 16:04:00,
2013-12-12 11:10:00,26.0,6.4,-100.00,SE,125,3.8,8.1,39,0.00,,,0.00,WSDL version 423,2013-12-12 16:10:00,
2013-12-12 11:16:00,26.1,6.4,-100.00,South,184,2.7,7.4,39,0.00,,,0.00,WSDL version 423,2013-12-12 16:16:00,
2013-12-12 11:22:00,26.2,6.6,-100.00,ESE,113,3.9,6.5,37,0.00,,,0.00,WSDL version 423,2013-12-12 16:22:00,
2013-12-12 11:28:00,26.2,5.7,-100.00,SE,138,5.3,10.3,37,-99.99,,,-99.99,WSDL version 423,2013-12-12 16:28:00,
2013-12-12 11:34:00,26.4,6.1,-100.00,East,84,4.8,9.8,36,0.00,,,0.00,WSDL version 423,2013-12-12 16:34:00,
2013-12-12 11:40:00,26.4,5.3,-100.00,SE,132,3.4,9.8,36,0.00,,,0.00,WSDL version 423,2013-12-12 16:40:00,
2013-12-12 11:46:00,26.6,5.6,-100.00,ESE,105,4.6,10.7,36,0.00,,,0.00,WSDL version 423,2013-12-12 16:46:00,
2013-12-12 11:52:00,26.5,5.1,-100.00,ESE,103,4.3,10.7,35,0.00,,,0.00,WSDL version 423,2013-12-12 16:52:00,
2013-12-12 11:58:00,26.7,5.2,-100.00,South,186,3.3,7.4,35,-99.99,,,-99.99,WSDL version 423,2013-12-12 16:58:00,
2013-12-12 12:04:00,27.0,5.5,-100.00,SE,125,4.7,9.4,35,-99.99,,,-99.99,WSDL version 423,2013-12-12 17:04:00,
2013-12-12 12:10:00,27.0,5.4,-100.00,ESE,105,3.7,9.4,34,0.00,,,0.00,WSDL version 423,2013-12-12 17:10:00,
2013-12-12 12:16:00,27.1,5.1,-100.00,East,90,3.8,8.7,34,-99.99,,,-99.99,WSDL version 423,2013-12-12 17:16:00,
2013-12-12 12:22:00,27.2,5.3,-100.00,ESE,103,2.7,8.7,35,0.00,,,0.00,WSDL version 423,2013-12-12 17:22:00,
2013-12-12 12:28:00,27.4,5.3,-100.00,SE,135,4.7,8.5,34,0.00,,,0.00,WSDL version 423,2013-12-12 17:28:00,
2013-12-12 12:34:00,27.3,5.4,-100.00,SE,140,3.8,8.5,35,0.00,,,0.00,WSDL version 423,2013-12-12 17:34:00,
2013-12-12 12:40:00,27.4,5.6,-100.00,SE,129,3.7,6.0,34,-99.99,,,-99.99,WSDL version 423,2013-12-12 17:40:00,
2013-12-12 12:46:00,27.5,5.8,-100.00,SE,140,3.6,10.7,34,0.00,,,0.00,WSDL version 423,2013-12-12 17:46:00,
2013-12-12 12:52:00,27.5,5.7,-100.00,ESE,120,2.7,10.7,35,-99.99,,,-99.99,WSDL version 423,2013-12-12 17:52:00,
2013-12-12 12:58:00,27.6,5.7,-100.00,East,96,3.1,7.4,35,0.00,,,0.00,WSDL version 423,2013-12-12 17:58:00,
2013-12-12 13:04:00,27.7,6.2,-100.00,SE,124,2.9,7.2,35,-99.99,,,-99.99,WSDL version 423,2013-12-12 18:04:00,
2013-12-12 13:10:00,27.9,6.2,-100.00,ESE,105,3.5,5.8,34,-99.99,,,-99.99,WSDL version 423,2013-12-12 18:10:00,
2013-12-12 13:16:00,27.9,6.2,-100.00,ESE,108,4.5,10.3,35,-99.99,,,-99.99,WSDL version 423,2013-12-12 18:16:00,
2013-12-12 13:22:00,27.9,5.9,-100.00,SE,124,4.4,10.3,35,-99.99,,,-99.99,WSDL version 423,2013-12-12 18:22:00,
2013-12-12 13:28:00,28.0,6.9,-100.00,SE,138,2.5,7.6,36,-99.99,,,-99.99,WSDL version 423,2013-12-12 18:28:00,
2013-12-12 13:34:00,28.1,7.1,-100.00,East,93,2.7,4.7,36,0.00,,,0.00,WSDL version 423,2013-12-12 18:34:00,
2013-12-12 13:40:00,28.0,7.5,-100.00,East,87,2.4,4.7,38,-99.99,,,-99.99,WSDL version 423,2013-12-12 18:40:00,
2013-12-12 13:46:00,28.0,8.0,-100.00,ESE,115,3.0,4.3,37,0.00,,,0.00,WSDL version 423,2013-12-12 18:46:00,
2013-12-12 13:52:00,27.9,7.2,-100.00,SE,128,2.2,5.6,36,-99.99,,,-99.99,WSDL version 423,2013-12-12 18:52:00,
2013-12-12 13:58:00,27.8,7.2,-100.00,WNW,295,1.8,4.3,38,-99.99,,,-99.99,WSDL version 423,2013-12-12 18:58:00,
2013-12-12 14:04:00,28.0,7.7,-100.00,East,93,2.5,6.5,38,-99.99,,,-99.99,WSDL version 423,2013-12-12 19:04:00,
2013-12-12 14:10:00,28.0,7.8,-100.00,ESE,110,3.6,6.3,37,0.00,,,0.00,WSDL version 423,2013-12-12 19:10:00,
2013-12-12 14:16:00,28.0,6.7,-100.00,ESE,115,3.9,6.3,35,-99.99,,,-99.99,WSDL version 423,2013-12-12 19:16:00,
2013-12-12 14:22:00,27.9,6.6,-100.00,SSE,161,2.4,6.3,36,-99.99,,,-99.99,WSDL version 423,2013-12-12 19:22:00,
2013-12-12 14:28:00,28.0,7.2,-100.00,SE,127,2.7,5.4,38,-99.99,,,-99.99,WSDL version 423,2013-12-12 19:28:00,
2013-12-12 14:34:00,27.9,7.9,-100.00,ESE,123,2.4,6.3,38,0.00,,,0.00,WSDL version 423,2013-12-12 19:34:00,
2013-12-12 14:40:00,27.9,8.1,-100.00,ESE,115,2.9,6.3,39,-99.99,,,-99.99,WSDL version 423,2013-12-12 19:40:00,
2013-12-12 14:46:00,27.8,8.6,-100.00,SE,138,2.5,6.3,40,-99.99,,,-99.99,WSDL version 423,2013-12-12 19:46:00,
2013-12-12 14:52:00,27.7,8.8,-100.00,SSE,148,2.8,5.6,41,-99.99,,,-99.99,WSDL version 423,2013-12-12 19:52:00,
2013-12-12 14:58:00,27.5,9.0,-100.00,ESE,115,3.4,7.4,41,0.00,,,0.00,WSDL version 423,2013-12-12 19:58:00,
2013-12-12 15:04:00,27.3,8.5,-100.00,East,90,3.5,7.6,40,-99.99,,,-99.99,WSDL version 423,2013-12-12 20:04:00,
2013-12-12 15:10:00,27.3,8.7,-100.00,SE,143,2.2,5.6,41,-99.99,,,-99.99,WSDL version 423,2013-12-12 20:10:00,
2013-12-12 15:16:00,27.1,8.8,-100.00,SSE,160,2.4,6.0,41,0.00,,,0.00,WSDL version 423,2013-12-12 20:16:00,
2013-12-12 15:22:00,27.1,8.7,-100.00,ESE,120,2.2,6.0,41,-99.99,,,-99.99,WSDL version 423,2013-12-12 20:22:00,
2013-12-12 15:28:00,27.0,8.6,-100.00,SSE,166,3.6,5.4,41,-99.99,,,-99.99,WSDL version 423,2013-12-12 20:28:00,
2013-12-12 15:34:00,26.8,8.3,-100.00,SE,125,3.0,7.2,41,-99.99,,,-99.99,WSDL version 423,2013-12-12 20:34:00,
2013-12-12 15:40:00,26.7,8.3,-100.00,SE,125,1.6,4.7,41,-99.99,,,-99.99,WSDL version 423,2013-12-12 20:40:00,
2013-12-12 15:46:00,26.5,8.5,-100.00,SE,125,2.9,4.3,42,-99.99,,,-99.99,WSDL version 423,2013-12-12 20:46:00,
2013-12-12 15:52:00,26.2,8.4,-100.00,SE,125,2.6,5.4,42,0.00,,,0.00,WSDL version 423,2013-12-12 20:52:00,
2013-12-12 15:58:00,26.1,8.0,-100.00,ESE,123,2.8,5.8,41,-99.99,,,-99.99,WSDL version 423,2013-12-12 20:58:00,
2013-12-12 16:04:00,26.1,8.2,-100.00,South,180,1.7,5.6,42,0.00,,,0.00,WSDL version 423,2013-12-12 21:04:00,
2013-12-12 16:10:00,25.9,8.1,-100.00,SE,132,1.9,4.7,42,-99.99,,,-99.99,WSDL version 423,2013-12-12 21:10:00,
2013-12-12 16:16:00,25.7,7.9,-100.00,SE,130,2.2,3.8,42,0.00,,,0.00,WSDL version 423,2013-12-12 21:16:00,
2013-12-12 16:22:00,25.4,7.7,-100.00,SE,124,2.6,4.3,42,-99.99,,,-99.99,WSDL version 423,2013-12-12 21:22:00,
2013-12-12 16:28:00,25.3,7.5,-100.00,East,100,1.7,4.3,42,-99.99,,,-99.99,WSDL version 423,2013-12-12 21:28:00,
2013-12-12 16:34:00,25.1,7.3,-100.00,SW,236,2.1,3.1,42,0.00,,,0.00,WSDL version 423,2013-12-12 21:34:00,
2013-12-12 16:40:00,24.9,7.3,-100.00,SE,128,2.1,6.0,43,-99.99,,,-99.99,WSDL version 423,2013-12-12 21:40:00,
2013-12-12 16:46:00,24.8,7.5,-100.00,SSE,158,1.2,6.0,43,-99.99,,,-99.99,WSDL version 423,2013-12-12 21:46:00,
2013-12-12 16:52:00,24.6,7.3,-100.00,SE,124,1.1,4.9,43,-99.99,,,-99.99,WSDL version 423,2013-12-12 21:52:00,
2013-12-12 16:58:00,24.4,7.2,-100.00,SE,135,1.7,4.0,43,0.00,,,0.00,WSDL version 423,2013-12-12 21:58:00,
2013-12-12 17:04:00,24.4,7.1,-100.00,ESE,118,1.3,3.1,43,-99.99,,,-99.99,WSDL version 423,2013-12-12 22:04:00,
2013-12-12 17:10:00,24.1,6.9,-100.00,East,100,0.0,3.1,43,-99.99,,,-99.99,WSDL version 423,2013-12-12 22:10:00,
2013-12-12 17:16:00,24.1,6.9,-100.00,SSE,154,0.5,3.1,43,-99.99,,,-99.99,WSDL version 423,2013-12-12 22:16:00,
2013-12-12 17:22:00,23.9,6.7,-100.00,ESE,104,0.7,2.2,43,0.00,,,0.00,WSDL version 423,2013-12-12 22:22:00,
2013-12-12 17:28:00,23.7,6.5,-100.00,SSE,154,0.0,2.0,43,-99.99,,,-99.99,WSDL version 423,2013-12-12 22:28:00,
2013-12-12 17:34:00,23.7,6.5,-100.00,SE,135,0.0,2.5,43,0.00,,,0.00,WSDL version 423,2013-12-12 22:34:00,
2013-12-12 17:40:00,23.5,6.4,-100.00,ESE,108,0.3,2.0,43,-99.99,,,-99.99,WSDL version 423,2013-12-12 22:40:00,
2013-12-12 17:46:00,23.5,6.4,-100.00,SSE,150,0.0,2.0,43,0.00,,,0.00,WSDL version 423,2013-12-12 22:46:00,
2013-12-12 17:52:00,23.4,6.6,-100.00,ESE,110,1.1,2.7,44,-99.99,,,-99.99,WSDL version 423,2013-12-12 22:52:00,
2013-12-12 17:58:00,23.4,6.6,-100.00,SE,145,0.5,2.9,44,-99.99,,,-99.99,WSDL version 423,2013-12-12 22:58:00,
2013-12-12 18:04:00,23.2,6.5,-100.00,ESE,108,0.7,2.2,44,0.00,,,0.00,WSDL version 423,2013-12-12 23:04:00,
2013-12-12 18:10:00,23.0,6.3,-100.00,SW,217,0.1,2.5,44,0.00,,,0.00,WSDL version 423,2013-12-12 23:10:00,
2013-12-12 18:16:00,23.0,6.3,-100.00,South,172,0.0,2.5,44,-99.99,,,-99.99,WSDL version 423,2013-12-12 23:16:00,
2013-12-12 18:22:00,23.0,6.3,-100.00,SE,132,1.7,2.5,44,-99.99,,,-99.99,WSDL version 423,2013-12-12 23:22:00,
2013-12-12 18:28:00,23.0,6.3,-100.00,SE,127,1.7,4.0,44,0.00,,,0.00,WSDL version 423,2013-12-12 23:28:00,
2013-12-12 18:34:00,23.0,6.3,-100.00,SE,141,1.9,4.0,44,0.00,,,0.00,WSDL version 423,2013-12-12 23:34:00,
2013-12-12 18:40:00,23.2,6.5,-100.00,SE,124,1.1,4.3,44,0.00,,,0.00,WSDL version 423,2013-12-12 23:40:00,
2013-12-12 18:46:00,23.2,6.5,-100.00,East,100,2.7,4.5,44,-99.99,,,-99.99,WSDL version 423,2013-12-12 23:46:00,
2013-12-12 18:52:00,23.0,6.3,-100.00,SSE,158,0.6,4.5,44,0.00,,,0.00,WSDL version 423,2013-12-12 23:52:00,
2013-12-12 18:58:00,22.8,6.6,-100.00,SSE,154,0.5,3.4,45,0.00,,,0.00,WSDL version 423,2013-12-12 23:58:00,
2013-12-12 19:04:00,22.8,6.6,-100.00,ESE,121,0.9,3.1,45,-99.99,,,-99.99,WSDL version 423,2013-12-13 00:04:00,
2013-12-12 19:10:00,-999.0,-99.9,-100.00,SE,124,0.0,4.9,-999,0.00,,,0.00,WSDL version 423,2013-12-13 00:10:00,
2013-12-12 19:16:00,22.6,6.4,-100.00,SSE,149,1.3,4.9,45,0.00,,,0.00,WSDL version 423,2013-12-13 00:16:00,
2013-12-12 19:22:00,22.7,6.4,-100.00,South,169,2.1,3.4,45,0.00,,,0.00,WSDL version 423,2013-12-13 00:22:00,
2013-12-12 19:28:00,22.6,6.4,-100.00,ESE,106,1.3,3.4,45,0.00,,,0.00,WSDL version 423,2013-12-13 00:28:00,
2013-12-12 19:34:00,22.6,6.3,-100.00,ESE,110,1.1,2.7,45,-99.99,,,-99.99,WSDL version 423,2013-12-13 00:34:00,
2013-12-12 19:40:00,22.5,6.2,-100.00,East,98,1.5,2.7,45,0.00,,,0.00,WSDL version 423,2013-12-13 00:40:00,
2013-12-12 19:46:00,22.5,6.2,-100.00,SSE,160,1.2,2.7,45,-99.99,,,-99.99,WSDL version 423,2013-12-13 00:46:00,
2013-12-12 19:52:00,22.5,6.2,-100.00,South,178,0.5,2.7,45,0.00,,,0.00,WSDL version 423,2013-12-13 00:52:00,
2013-12-12 19:58:00,22.2,6.0,-100.00,SE,146,0.8,3.1,45,0.00,,,0.00,WSDL version 423,2013-12-13 00:58:00,
2013-12-12 20:04:00,22.1,5.9,-100.00,SW,228,0.0,3.1,45,0.00,,,0.00,WSDL version 423,2013-12-13 01:04:00,
2013-12-12 20:10:00,21.9,5.7,-100.00,SSE,160,0.6,3.6,45,0.00,,,0.00,WSDL version 423,2013-12-13 01:10:00,
2013-12-12 20:16:00,21.9,5.7,-100.00,SE,131,0.5,5.6,45,-99.99,,,-99.99,WSDL version 423,2013-12-13 01:16:00,
2013-12-12 20:22:00,21.9,5.7,-100.00,ESE,122,1.5,3.8,45,0.00,,,0.00,WSDL version 423,2013-12-13 01:22:00,
2013-12-12 20:28:00,21.9,5.7,-100.00,East,82,1.0,2.7,45,0.00,,,0.00,WSDL version 423,2013-12-13 01:28:00,
2013-12-12 20:34:00,21.7,5.6,-100.00,SSW,199,2.2,8.7,45,0.00,,,0.00,WSDL version 423,2013-12-13 01:34:00,
2013-12-12 20:40:00,21.7,5.6,-100.00,SE,143,1.3,8.7,45,0.00,,,0.00,WSDL version 423,2013-12-13 01:40:00,
2013-12-12 20:46:00,21.7,5.8,-100.00,South,191,0.3,3.1,46,0.00,,,0.00,WSDL version 423,2013-12-13 01:46:00,
2013-12-12 20:52:00,21.5,5.8,-100.00,SSE,158,1.2,2.5,46,0.00,,,0.00,WSDL version 423,2013-12-13 01:52:00,
2013-12-12 20:58:00,21.5,5.8,-100.00,SE,141,1.6,2.9,46,0.00,,,0.00,WSDL version 423,2013-12-13 01:58:00,
2013-12-12 21:04:00,21.5,5.8,-100.00,SSE,164,1.8,2.9,46,0.00,,,0.00,WSDL version 423,2013-12-13 02:04:00,
2013-12-12 21:10:00,21.4,5.7,-100.00,ESE,113,1.1,2.7,46,0.00,,,0.00,WSDL version 423,2013-12-13 02:10:00,
2013-12-12 21:16:00,21.4,5.6,-100.00,ESE,118,1.0,2.7,46,0.00,,,0.00,WSDL version 423,2013-12-13 02:16:00,
2013-12-12 21:22:00,21.2,5.5,-100.00,South,188,1.6,2.7,46,0.00,,,0.00,WSDL version 423,2013-12-13 02:22:00,
2013-12-12 21:28:00,21.2,5.5,-100.00,SSE,164,1.0,4.0,46,0.00,,,0.00,WSDL version 423,2013-12-13 02:28:00,
2013-12-12 21:34:00,21.2,5.5,-100.00,SSW,208,2.0,3.6,46,0.00,,,0.00,WSDL version 423,2013-12-13 02:34:00,
2013-12-12 21:40:00,21.2,5.5,-100.00,ESE,121,2.3,4.0,46,0.00,,,0.00,WSDL version 423,2013-12-13 02:40:00,
2013-12-12 21:46:00,21.2,5.5,-100.00,SE,125,1.5,4.0,46,-99.99,,,-99.99,WSDL version 423,2013-12-13 02:46:00,
2013-12-12 21:52:00,21.2,5.5,-100.00,SW,231,1.4,3.1,46,0.00,,,0.00,WSDL version 423,2013-12-13 02:52:00,
2013-12-12 21:58:00,21.0,5.7,-100.00,SSW,199,1.8,2.9,47,0.00,,,0.00,WSDL version 423,2013-12-13 02:58:00,
2013-12-12 22:04:00,21.0,5.7,-100.00,NE,45,1.2,2.7,47,0.00,,,0.00,WSDL version 423,2013-12-13 03:04:00,
2013-12-12 22:10:00,20.8,5.6,-100.00,SE,132,1.7,3.8,47,0.00,,,0.00,WSDL version 423,2013-12-13 03:10:00,
2013-12-12 22:16:00,20.8,5.5,-100.00,SE,138,1.9,3.8,47,-99.99,,,-99.99,WSDL version 423,2013-12-13 03:16:00,
2013-12-12 22:22:00,20.7,5.4,-100.00,South,169,1.6,3.6,47,0.00,,,0.00,WSDL version 423,2013-12-13 03:22:00,
2013-12-12 22:28:00,20.5,5.3,-100.00,SE,129,1.4,3.8,47,0.00,,,0.00,WSDL version 423,2013-12-13 03:28:00,
2013-12-12 22:34:00,20.5,5.2,-100.00,SSW,197,1.5,3.8,47,0.00,,,0.00,WSDL version 423,2013-12-13 03:34:00,
2013-12-12 22:40:00,20.5,5.3,-100.00,SE,129,2.5,4.7,47,0.00,,,0.00,WSDL version 423,2013-12-13 03:40:00,
2013-12-12 22:46:00,20.7,5.4,-100.00,SE,135,0.8,4.7,47,0.00,,,0.00,WSDL version 423,2013-12-13 03:46:00,
2013-12-12 22:52:00,20.9,5.6,-100.00,SE,125,1.1,3.4,47,0.00,,,0.00,WSDL version 423,2013-12-13 03:52:00,
2013-12-12 22:58:00,21.1,5.8,-100.00,East,100,1.7,3.4,47,-99.99,,,-99.99,WSDL version 423,2013-12-13 03:58:00,
2013-12-12 23:04:00,21.2,5.9,-100.00,SSE,155,1.1,3.8,47,0.00,,,0.00,WSDL version 423,2013-12-13 04:04:00,
2013-12-12 23:10:00,21.2,5.9,-100.00,SE,132,1.2,2.7,47,0.00,,,0.00,WSDL version 423,2013-12-13 04:10:00,
2013-12-12 23:16:00,21.0,5.7,-100.00,ESE,115,1.1,2.5,47,0.00,,,0.00,WSDL version 423,2013-12-13 04:16:00,
2013-12-12 23:22:00,20.8,5.5,-100.00,SE,141,0.7,2.5,47,0.00,,,0.00,WSDL version 423,2013-12-13 04:22:00,
2013-12-12 23:28:00,20.7,5.4,-100.00,SSE,154,1.1,4.3,47,0.00,,,0.00,WSDL version 423,2013-12-13 04:28:00,
2013-12-12 23:34:00,20.5,5.3,-100.00,ESE,121,0.5,4.3,47,0.00,,,0.00,WSDL version 423,2013-12-13 04:34:00,
2013-12-12 23:40:00,20.4,5.2,-100.00,SE,138,0.2,2.2,47,0.00,,,0.00,WSDL version 423,2013-12-13 04:40:00,
2013-12-12 23:46:00,20.3,5.1,-100.00,SSE,155,0.0,1.6,47,0.00,,,0.00,WSDL version 423,2013-12-13 04:46:00,
2013-12-12 23:52:00,20.3,5.1,-100.00,SE,135,0.9,2.7,47,0.00,,,0.00,WSDL version 423,2013-12-13 04:52:00,
2013-12-12 23:58:00,20.5,5.7,-100.00,SE,127,1.1,2.5,48,0.00,,,0.00,WSDL version 423,2013-12-13 04:58:00,